Wetbulb
77.47 76.08 75.64 75.94 75.54 75.16 74.82 74.77 75.71 76.82 76.90 76.47 76.28 75.95 75.67 75.34 75.10 75.57 74.99 75.41 75.39 78.32
77.32 76.91 76.05 76.47 76.87 73.47 74.43 76.81 77.61 77.42 76.70 76.53 76.87 76.36 76.79 75.38 75.07 75.46 74.86 75.14 75.73 75.89
77.08 77.48 77.20 76.73 75.53 75.87 77.71 76.05 77.20 77.82 77.49 77.06 76.70 76.55 76.70 76.44 76.30 75.14 75.06 74.93 75.68 75.55
76.45 76.81 76.67 75.98 76.12 76.97 77.02 76.51 76.41 77.23 77.43 75.87 76.35 76.75 76.70 76.89 76.47 75.93 76.09 76.01 75.84 75.64
76.92 77.69 76.83 76.82 76.89 77.04 76.68 77.66 77.86 77.65 76.58 75.95 76.03 76.67 75.95 75.59 75.53 75.22 74.82 75.42 75.85 75.11
77.44 75.97 75.95 75.78 74.94 75.21 75.02 74.45 74.42 75.64 76.23 76.31 75.89 75.83 75.60 74.83 74.45 74.69 74.57 74.58 74.96 75.34
76.33 76.00 75.47 74.45 74.14 73.92 74.27 73.64 73.54 74.20 74.64 74.68 74.76 74.53 74.44 74.50 74.27 74.91 75.40 75.15 75.20 75.14
76.18 74.93 74.35 74.01 73.98 73.43 73.32 73.06 73.44 73.50 73.55 73.59 72.82 69.78 72.01 72.91 72.48 72.77 72.58 72.80 73.33 73.76
74.30 74.37 73.66 73.57 73.05 72.26 71.51 71.37 71.68 71.05 70.81 71.21 69.14 63.62 65.25 67.26 70.53 70.58 70.70 70.78 71.28 72.45
73.29 72.74 72.56 71.81 71.11 70.48 69.97 70.31 70.04 69.94 70.40 69.34 68.78 61.64 63.18 65.51 69.72 69.49 69.73 69.94 70.15 69.86
72.56 71.45 71.11 70.93 70.15 69.66 69.34 68.44 68.05 68.28 68.59 67.82 62.50 57.30 58.21 61.25 68.44 68.81 67.61 67.91 68.05 67.87
69.85 70.22 70.38 69.90 68.93 67.93 67.75 67.91 67.72 67.44 66.92 66.30 63.79 55.19 55.56 60.55 66.33 66.19 66.01 67.72 66.75 65.54
69.04 67.84 67.98 67.93 67.75 67.78 68.15 67.50 66.75 66.15 65.97 59.45 64.74 53.15 53.95 56.49 63.95 64.18 64.50 65.56 66.00 57.46
66.95 66.19 65.61 66.58 67.19 67.05 67.20 65.96 64.83 64.76 64.95 63.95 59.97 60.10 53.20 53.36 61.51 62.03 62.55 63.53 64.82 63.55
MSLP
1012.88 1012.70 1012.86 1013.27 1013.25 1013.49 1014.04 1014.05 1014.00 1013.90 1014.03 1014.18 1014.52 1014.71 1014.99 1015.18 1015.39 1015.34 1015.61 1015.78 1015.74 1015.92
1012.60 1012.80 1012.81 1013.50 1013.96 1014.44 1014.14 1013.63 1013.69 1013.81 1013.92 1014.04 1014.38 1014.70 1014.95 1015.10 1015.01 1014.97 1015.35 1015.24 1015.48 1015.45
1012.29 1012.75 1013.15 1013.40 1013.58 1013.81 1013.46 1013.84 1013.74 1013.67 1013.70 1014.02 1014.18 1014.53 1014.74 1014.91 1014.78 1014.89 1014.79 1014.77 1014.86 1015.12
1012.37 1012.71 1013.04 1013.19 1013.49 1013.60 1013.71 1013.81 1013.71 1013.72 1013.66 1013.96 1014.08 1014.34 1014.50 1014.63 1014.50 1014.68 1014.63 1014.49 1014.57 1014.88
1012.09 1012.48 1012.49 1012.78 1013.07 1013.25 1013.41 1013.57 1013.61 1013.70 1013.78 1013.94 1014.26 1014.38 1014.44 1014.43 1014.34 1014.63 1014.77 1014.61 1014.53 1014.43
1011.91 1012.03 1012.41 1012.83 1013.18 1013.59 1013.80 1013.88 1013.79 1013.85 1013.92 1013.99 1014.30 1014.39 1014.42 1014.51 1014.47 1014.46 1014.63 1014.54 1014.51 1014.46
1011.63 1012.07 1012.60 1013.14 1013.42 1013.65 1013.92 1014.18 1014.29 1014.31 1014.28 1014.40 1014.49 1014.50 1014.50 1014.43 1014.43 1014.22 1014.20 1014.42 1014.45 1014.38
1011.78 1012.36 1012.89 1013.43 1013.80 1014.00 1014.16 1014.35 1014.51 1014.50 1014.63 1014.76 1014.64 1014.98 1015.15 1014.70 1014.60 1014.63 1014.51 1014.56 1014.58 1014.63
1012.56 1012.64 1013.11 1013.63 1014.09 1014.34 1014.59 1014.78 1014.79 1014.74 1014.95 1015.14 1014.96 1016.26 1016.07 1015.71 1015.01 1014.97 1014.86 1014.77 1014.76 1014.96
1012.95 1013.13 1013.14 1013.76 1014.21 1014.54 1014.74 1014.96 1015.17 1015.22 1015.20 1015.60 1016.05 1016.63 1016.46 1016.13 1015.11 1015.23 1015.21 1015.27 1015.23 1015.08
1013.38 1013.50 1013.78 1013.85 1014.30 1014.83 1015.06 1015.06 1015.11 1015.48 1015.69 1015.91 1016.99 1017.04 1016.77 1016.46 1015.86 1015.55 1015.69 1015.72 1015.65 1015.71
1013.64 1013.77 1014.01 1014.40 1014.41 1014.96 1015.14 1015.18 1015.15 1015.55 1015.98 1016.35 1017.01 1017.30 1017.13 1016.77 1016.01 1015.69 1015.80 1015.81 1016.09 1016.48
1012.99 1014.09 1013.37 1015.05 1014.76 1015.09 1015.19 1015.14 1015.26 1015.70 1016.26 1016.81 1017.00 1017.58 1017.52 1017.43 1016.23 1015.72 1015.53 1015.72 1016.01 1017.01
1013.71 1013.83 1013.18 1015.18 1015.37 1015.37 1015.38 1015.55 1015.73 1015.89 1016.34 1016.79 1017.28 1017.53 1017.72 1017.75 1016.93 1016.30 1015.77 1015.44 1015.47 1016.30
Wind_Speed
8 7 6 6 4 4 3 4 6 8 9 9 8 8 8 7 8 8 8 9 8 4
8 6 4 3 2 3 2 3 6 7 8 8 9 9 8 8 9 7 9 9 9 7
7 6 5 7 6 6 2 3 4 7 7 8 8 9 9 8 8 9 9 8 8 7
5 6 5 5 3 2 3 3 1 3 6 5 7 8 9 9 8 10 10 10 7 9
8 9 10 8 6 5 4 2 2 2 4 5 6 5 6 7 6 8 9 9 10 11
10 8 7 7 7 6 5 4 4 4 4 3 2 3 4 5 5 6 6 7 8 9
10 10 9 7 6 6 5 3 3 3 2 3 3 3 3 3 4 4 2 2 3 5
10 10 9 7 5 5 4 5 3 2 2 0 1 8 9 5 4 5 5 4 5 6
10 11 9 7 5 5 5 4 4 4 4 1 6 8 8 9 4 4 5 5 5 5
9 9 10 8 6 5 4 4 3 3 2 5 6 10 9 9 5 6 5 5 6 7
8 8 7 8 6 5 3 4 4 3 3 5 7 12 11 10 4 3 4 5 6 6
7 7 6 5 6 4 4 5 5 5 5 5 6 11 12 11 5 4 4 2 4 6
11 5 9 4 5 4 5 4 6 6 6 3 6 11 11 11 6 5 5 4 4 11
6 8 11 4 4 5 5 6 6 6 5 5 5 7 8 9 6 6 5 3 1 7
Wind_Direction
197 203 206 196 220 205 193 220 218 212 224 214 215 216 211 216 224 219 226 231 248 222
193 219 195 168 211 339 303 282 208 213 213 222 215 217 216 228 206 229 216 226 227 228
182 187 181 190 198 239 279 253 247 222 211 213 214 215 219 231 207 218 225 222 219 234
170 173 160 173 179 152 148 207 205 216 228 217 218 218 211 216 226 215 225 245 214 218
166 174 161 158 151 144 85 99 100 135 191 194 224 232 233 238 248 230 227 230 244 227
164 156 132 126 120 107 93 71 67 60 30 41 75 205 213 252 253 256 254 255 244 247
161 144 140 132 132 127 119 118 107 81 68 56 66 57 46 50 34 359 23 285 265 262
142 132 134 131 129 124 136 122 124 121 85 36 313 30 351 344 336 335 326 342 341 82
147 139 132 130 129 125 123 105 99 113 115 76 66 14 6 340 323 317 300 305 313 300
146 144 139 135 136 133 129 117 104 94 101 79 69 25 15 350 324 319 348 312 313 305
156 143 142 144 142 148 158 151 136 124 113 115 67 32 19 346 318 348 344 339 333 335
145 152 142 158 139 147 163 160 145 116 124 113 83 37 21 345 304 8 315 328 341 340
157 177 125 185 153 161 192 157 122 146 121 73 112 55 28 359 311 305 304 267 158 73
160 148 112 173 186 187 191 140 146 145 129 108 33 78 43 14 307 343 320 334 25 79